This is the latest recevied weather packets stored in our database for station/object WA1TYB-13. If no packets are shown the sender has not sent any weather packets the latest 10 day(s).
| Time | Temp. | Humidity | Pressure | Rain* | Wind** | Luminosity | Snow |
|---|---|---|---|---|---|---|---|
| 1777869883 | 14.44° C | 26% | 1011.3 hPa | 0 mm | - | 0 W/m² | - |
| 1777869581 | 14.44° C | 25% | 1011.2 hPa | 0 mm | - | 0 W/m² | - |
| 1777869277 | 13.89° C | 27% | 1011.4 hPa | 0 mm | - | 0 W/m² | - |
| 1777868975 | 13.89° C | 28% | 1011.4 hPa | 0 mm | - | 0 W/m² | - |
| 1777868671 | 13.33° C | 30% | 1011.1 hPa | 0 mm | - | 0 W/m² | - |
| 1777868368 | 13.33° C | 31% | 1011.2 hPa | 0 mm | - | 0 W/m² | - |
| 1777868064 | 13.89° C | 30% | 1011.3 hPa | 0 mm | - | 0 W/m² | - |
| 1777867760 | 13.89° C | 30% | 1011.2 hPa | 0 mm | - | 0 W/m² | - |
| 1777867459 | 13.33° C | 30% | 1011 hPa | 0 mm | - | 0 W/m² | - |
| 1777867154 | 13.33° C | 30% | 1011 hPa | 0 mm | - | 0 W/m² | - |
| 1777866852 | 14.44° C | 28% | 1010.8 hPa | 0 mm | - | 0 W/m² | - |
| 1777866548 | 15° C | 27% | 1011 hPa | 0 mm | - | 0 W/m² | - |
| 1777866246 | 14.44° C | 27% | 1011 hPa | 0 mm | - | 0 W/m² | - |
| 1777865943 | 14.44° C | 29% | 1011 hPa | 0 mm | - | 0 W/m² | - |
| 1777865641 | 16.11° C | 27% | 1010.7 hPa | 0 mm | - | 0 W/m² | - |
| 1777865337 | 16.11° C | 25% | 1010.6 hPa | 0 mm | - | 0 W/m² | - |
| 1777865034 | 17.22° C | 23% | 1010.7 hPa | 0 mm | - | 0 W/m² | - |
| 1777864730 | 17.78° C | 22% | 1010.5 hPa | 0 mm | - | 0 W/m² | - |
| 1777864428 | 18.33° C | 20% | 1010.4 hPa | 0 mm | - | 0 W/m² | - |
| 1777864124 | 18.33° C | 21% | 1010.6 hPa | 0 mm | - | 0 W/m² | - |
| 1777863822 | 17.78° C | 22% | 1010.3 hPa | 0 mm | - | 0 W/m² | - |
| 1777863517 | 16.67° C | 23% | 1010.4 hPa | 0 mm | - | 0 W/m² | - |
| 1777863215 | 16.67° C | 25% | 1010.1 hPa | 0 mm | - | 0 W/m² | - |
| 1777862911 | 16.67° C | 25% | 1010.1 hPa | 0 mm | - | 0 W/m² | - |
| 1777862608 | 17.22° C | 25% | 1010.2 hPa | 0 mm | - | 0 W/m² | - |
* Rain latest hour (hover to see other rain measurements)
** Current wind speed in m/s (hover to see current wind gust speed)